User: anonymous   Login
Location: *
(46.1866°S, 178.5290°W)
Time: 22:00:42
(UTC+00:00)
Language:

PSLV R/B - Orbit

View from above orbital plane
View from above orbital plane
View from above satellite
View from above satellite

Ground track
Ground track

The orbit data is extracted from the following two-line orbital elements,

1 36800U 10035F   21212.55061355  .00000225  00000-0  26310-4 0  9999
2 36800  98.1568  52.5202 0023038  50.9582 309.3683 14.94980956601742
Epoch (UTC): 31 July 2021 13:12:53
Eccentricity: 0.0023038
inclination: 98.1568°
perigee height: 566 km
apogee height: 598 km
right ascension of ascending node: 52.5202°
argument of perigee: 50.9582°
revolutions per day: 14.94980956
mean anomaly at epoch: 309.3683°
orbit number at epoch: 60174

The dashed part of the orbit path shows where the satellite is in the earth's shadow,  

DLR